Torna al catalogo

COSMOS 1851

AttivoMilitareHEO
NORAD 18103·PAYLOAD·🇷🇺 Russia

Lanciato Jun 12, 1987 da Plesetsk Cosmodrome

Loading…

Prossimi Passaggi (prossime 24 ore)

TLE

AggiornatoSource: Space-Track

Epoca: Sep 13, 2026, 14:45 UTC

1 18103U 87050A   26256.61464288  .00000014  00000-0  00000+0 0  9997
2 18103  70.9885 184.5078 4699421  36.8089 105.3431  2.00529384287562

Traccia COSMOS 1851 in tempo reale con AllMySat

Download on the App Store